Truckee-Tahoe, CA

3:59 AM PDT on May 27, 2018 (GMT -0700)
Truckee-Tahoe

Weather History for KTRK - March, 2014

Change the Weather History Date:

Wednesday, March 19, 2014

  Actual Average Record
Temperature  
Mean Temperature 36 °F -  
Max Temperature 57 °F 47 °F 68 °F (2001)
Min Temperature 14 °F 21 °F 8 °F (1963)
Degree Days  
Heating Degree Days 30    
Moisture  
Dew Point 18 °F    
Average Humidity 64    
Maximum Humidity 86    
Minimum Humidity 18    
Precipitation  
Precipitation 0.00 in - - ()
Sea Level Pressure  
Sea Level Pressure 30.14 in    
Wind  
Wind Speed 2 mph (SW)    
Max Wind Speed 12 mph    
Max Gust Speed -    
Visibility 10 miles    
Events      
Averages and records for this station are not official NWS values.
T = Trace of Precipitation, MM = Missing Value Source: NWS Daily Summary

Daily Weather History Graph

Daily Weather History Graph

Search for Another Location

Airport or City:

Astronomy

Mar. 19, 2014 Rise Set
Actual Time 7:05 AM PDT 7:11 PM PDT
Civil Twilight 6:38 AM PDT 7:38 PM PDT
Nautical Twilight 6:07 AM PDT 8:09 PM PDT
Astronomical Twilight 5:35 AM PDT 8:41 PM PDT
Moon 10:34 PM PDT (3/19) 8:35 AM PDT (3/19)
Length of Visible Light 12h 59m
Length of Day
12h 06m
Waning Gibbous, 90% of the Moon is Illuminated
Mar 19
Waning Gibbous
Mar 23
Last Quarter
Mar 30
New
Apr 7
First Quarter
Apr 15
Full

Hourly Weather History & Observations

Time (PDT) Temp. Windchill Dew Point Humidity Pressure Visibility Wind Dir Wind Speed Gust Speed Precip Events Conditions
12:15 AM 21.2 °F - 12.2 °F 68% 30.12 in 10.0 mi Calm Calm - N/A   Clear
12:35 AM 21.2 °F 16.4 °F 12.2 °F 68% 30.12 in 10.0 mi South 3.5 mph - N/A   Clear
12:55 AM 23.0 °F 18.4 °F 12.2 °F 63% 30.11 in 10.0 mi SW 3.5 mph - N/A   Clear
1:15 AM 21.2 °F - 12.2 °F 68% 30.11 in 10.0 mi Calm Calm - N/A   Clear
1:35 AM 21.2 °F - 12.2 °F 68% 30.11 in 10.0 mi Calm Calm - N/A   Clear
1:55 AM 19.4 °F - 10.4 °F 68% 30.12 in 10.0 mi Calm Calm - N/A   Clear
2:15 AM 19.4 °F - 12.2 °F 74% 30.12 in 10.0 mi Calm Calm - N/A   Clear
2:35 AM 21.2 °F - 12.2 °F 68% 30.11 in 10.0 mi Calm Calm - N/A   Clear
2:55 AM 19.4 °F - 10.4 °F 68% 30.12 in 10.0 mi Calm Calm - N/A   Clear
3:15 AM 17.6 °F 12.3 °F 12.2 °F 79% 30.12 in 10.0 mi SSW 3.5 mph - N/A   Clear
3:35 AM 15.8 °F - 10.4 °F 79% 30.11 in 10.0 mi Calm Calm - N/A   Clear
3:55 AM 17.6 °F - 12.2 °F 79% 30.11 in 10.0 mi Calm Calm - N/A   Clear
4:15 AM 19.4 °F - 12.2 °F 74% 30.11 in 10.0 mi Calm Calm - N/A   Clear
4:35 AM 19.4 °F - 10.4 °F 68% 30.11 in 10.0 mi Calm Calm - N/A   Clear
4:55 AM 15.8 °F - 10.4 °F 79% 30.11 in 10.0 mi Calm Calm - N/A   Clear
5:15 AM 15.8 °F - 10.4 °F 79% 30.11 in 10.0 mi Calm Calm - N/A   Clear
5:35 AM 17.6 °F 10.7 °F 10.4 °F 73% 30.11 in 10.0 mi NNW 4.6 mph - N/A   Clear
5:55 AM 14.0 °F - 8.6 °F 79% 30.12 in 10.0 mi Calm Calm - N/A   Clear
6:15 AM 15.8 °F - 10.4 °F 79% 30.13 in 10.0 mi Calm Calm - N/A   Clear
6:35 AM 14.0 °F - 10.4 °F 86% 30.12 in 10.0 mi Calm Calm - N/A   Clear
6:45 AM 15.8 °F - 10.4 °F 79% 30.13 in 10.0 mi Calm Calm - N/A   Scattered Clouds
7:55 AM 19.4 °F - 12.2 °F 74% 30.15 in 10.0 mi Calm Calm - N/A   Clear
8:50 AM 24.8 °F - 15.8 °F 69% 30.16 in 10.0 mi Calm Calm - N/A   Clear
9:55 AM 33.8 °F - 15.8 °F 48% 30.16 in 10.0 mi Calm Calm - N/A   Clear
10:50 AM 46.4 °F - 21.2 °F 37% 30.17 in 10.0 mi Calm Calm - N/A   Clear
11:45 AM 51.8 °F - 26.6 °F 38% 30.16 in 10.0 mi WNW 9.2 mph - N/A   Clear
12:45 PM 53.6 °F - 14.0 °F 21% 30.15 in 10.0 mi SW 6.9 mph - N/A   Clear
2:50 PM 57.2 °F - 14.0 °F 18% 30.12 in 10.0 mi SSW 3.5 mph - N/A   Clear
4:55 PM 55.4 °F - 17.6 °F 23% 30.12 in 10.0 mi SW 9.2 mph - N/A   Clear
5:45 PM 53.6 °F - 21.2 °F 28% 30.13 in 10.0 mi West 11.5 mph - N/A   Scattered Clouds
6:15 PM 51.8 °F - 23.0 °F 33% 30.13 in 10.0 mi WSW 10.4 mph - N/A   Clear
6:35 PM 50.0 °F - 24.8 °F 37% 30.14 in 10.0 mi West 8.1 mph - N/A   Clear
6:55 PM 48.2 °F - 26.6 °F 43% 30.14 in 10.0 mi West 9.2 mph - N/A   Clear
7:15 PM 46.4 °F 41.9 °F 26.6 °F 46% 30.14 in 10.0 mi West 9.2 mph - N/A   Clear
7:35 PM 44.6 °F 40.7 °F 26.6 °F 49% 30.14 in 10.0 mi WSW 6.9 mph - N/A   Clear
7:55 PM 41.0 °F 38.0 °F 26.6 °F 57% 30.15 in 10.0 mi SE 4.6 mph - N/A   Clear
8:15 PM 37.4 °F 33.8 °F 24.8 °F 60% 30.16 in 10.0 mi SSE 4.6 mph - N/A   Clear
8:35 PM 35.6 °F 30.7 °F 24.8 °F 65% 30.16 in 10.0 mi SE 5.8 mph - N/A   Clear
8:55 PM 33.8 °F - 26.6 °F 75% 30.16 in 10.0 mi Calm Calm - N/A   Clear
9:15 PM 33.8 °F 30.8 °F 26.6 °F 75% 30.16 in 10.0 mi SSE 3.5 mph - N/A   Clear
9:35 PM 33.8 °F 30.8 °F 26.6 °F 75% 30.16 in 10.0 mi SSW 3.5 mph - N/A   Clear
9:55 PM 32.0 °F - 24.8 °F 75% 30.16 in 10.0 mi Calm Calm - N/A   Clear
10:15 PM 32.0 °F - 26.6 °F 80% 30.17 in 10.0 mi Calm Calm - N/A   Clear
10:35 PM 32.0 °F - 26.6 °F 80% 30.17 in 10.0 mi Calm Calm - N/A   Clear
10:55 PM 28.4 °F - 23.0 °F 80% 30.17 in 10.0 mi Calm Calm - N/A   Clear
11:15 PM 32.0 °F - 26.6 °F 80% 30.17 in 10.0 mi Calm Calm - N/A   Clear
11:35 PM 30.2 °F - 26.6 °F 86% 30.17 in 10.0 mi Calm Calm - N/A   Clear
11:55 PM 30.2 °F - 24.8 °F 80% 30.17 in 10.0 mi Calm Calm - N/A   Clear